Tracking 31027 objects as of 19-Jul-2025
HD Live streaming from Space Station
objects crossing your sky now

FENGYUN 1C DEB

Track FENGYUN 1C DEB now!
10-day predictions


NORAD ID: 29818
Int'l Code: 1999-025DL
Perigee: 801.6 km
Apogee: 970.0 km
Inclination: 98.7 °
Period: 102.5 minutes
Semi major axis: 7256 km
RCS: 0.141 m2 (medium)
Launch date: May 10, 1999
Source: People's Republic of China (PRC)
Launch site: Taiyaun Space Center, China (TSC)

Note: This is SATELLITE DEBRIS
Your satellite tracking list
COSMOS 1408 DEB
Track 1 satellite(s)




NASA's NSSDC Master Catalog

Two Line Element Set (TLE):
1 29818U 99025DL  25199.24640839  .00000039  00000-0  47711-4 0  9991
2 29818  98.7432  82.1869 0116050  79.4038  34.6097 14.04379188947397
Source of the keplerian elements: AFSPC